TimePDT,TemperatureF,Dew PointF,Humidity,Sea Level PressureIn,VisibilityMPH,Wind Direction,Wind SpeedMPH,Gust SpeedMPH,PrecipitationIn,Events,Conditions,WindDirDegrees,DateUTC
12:53 AM,54.0,45.0,72,29.91,10.0,WNW,4.6,-,N/A,,Clear,300,2012-10-19 07:53:00
1:53 AM,52.0,44.1,74,29.91,10.0,Calm,Calm,-,N/A,,Partly Cloudy,0,2012-10-19 08:53:00
2:53 AM,53.1,46.0,77,29.89,10.0,Calm,Calm,-,N/A,,Mostly Cloudy,0,2012-10-19 09:53:00
3:53 AM,51.1,45.0,80,29.88,10.0,Calm,Calm,-,N/A,,Partly Cloudy,0,2012-10-19 10:53:00
4:53 AM,50.0,46.0,86,29.88,10.0,Calm,Calm,-,N/A,,Clear,0,2012-10-19 11:53:00
5:53 AM,51.1,46.9,86,29.87,10.0,South,3.5,-,N/A,,Mostly Cloudy,180,2012-10-19 12:53:00
6:53 AM,53.1,48.0,83,29.87,10.0,NNE,4.6,-,N/A,,Mostly Cloudy,20,2012-10-19 13:53:00
7:53 AM,60.1,48.9,67,29.87,10.0,Calm,Calm,-,N/A,,Overcast,0,2012-10-19 14:53:00
8:53 AM,59.0,48.0,67,29.89,10.0,NW,6.9,-,N/A,,Overcast,320,2012-10-19 15:53:00
9:53 AM,59.0,48.9,69,29.88,6.0,WNW,9.2,18.4,N/A,,Haze,300,2012-10-19 16:53:00
10:53 AM,60.1,48.9,67,29.89,7.0,NW,8.1,-,N/A,,Mostly Cloudy,310,2012-10-19 17:53:00
11:53 AM,61.0,48.9,64,29.87,8.0,NNW,6.9,-,N/A,,Overcast,340,2012-10-19 18:53:00
12:53 PM,62.1,50.0,65,29.85,5.0,NNW,9.2,-,N/A,,Haze,330,2012-10-19 19:53:00
1:53 PM,64.0,50.0,60,29.81,6.0,NNW,9.2,-,N/A,,Haze,330,2012-10-19 20:53:00
2:53 PM,62.1,51.1,67,29.79,4.0,NW,6.9,-,N/A,,Haze,320,2012-10-19 21:53:00
3:53 PM,62.1,52.0,70,29.78,5.0,NW,12.7,-,N/A,,Haze,320,2012-10-19 22:53:00
4:53 PM,64.0,52.0,65,29.75,4.0,NNW,11.5,19.6,N/A,,Haze,330,2012-10-19 23:53:00
5:53 PM,61.0,51.1,70,29.72,10.0,NNW,11.5,-,N/A,,Clear,330,2012-10-20 00:53:00
6:53 PM,62.1,51.1,67,29.71,10.0,NW,17.3,-,N/A,,Mostly Cloudy,310,2012-10-20 01:53:00
7:53 PM,60.1,51.1,72,29.70,10.0,NW,16.1,-,N/A,,Overcast,320,2012-10-20 02:53:00
8:53 PM,59.0,52.0,78,29.73,10.0,West,10.4,-,0.00,Rain,Light Rain,280,2012-10-20 03:53:00
9:53 PM,57.0,50.0,77,29.77,10.0,WNW,10.4,-,0.00,,Overcast,290,2012-10-20 04:53:00
10:53 PM,55.9,46.9,72,29.78,7.0,Variable,5.8,-,N/A,,Mostly Cloudy,0,2012-10-20 05:53:00
11:53 PM,55.9,46.9,72,29.78,10.0,NNW,9.2,-,N/A,,Partly Cloudy,330,2012-10-20 06:53:00